Weather History for Livingston, MT

Change the Weather History Date:

Wednesday, October 3, 2012

  Actual Average Record
Temperature  
Mean Temperature 39 °F 49 °F  
Max Temperature 45 °F 64 °F 91 °F (2010)
Min Temperature 33 °F 35 °F 23 °F (1968)
Degree Days  
Heating Degree Days 26 16  
Month to date heating degree days 46  
Since 1 July heating degree days 455  
Cooling Degree Days 0 0  
Month to date cooling degree days 0  
Year to date cooling degree days 229  
Moisture  
Dew Point 31 °F    
Average Humidity 85    
Maximum Humidity 93    
Minimum Humidity 63    
Precipitation  
Precipitation 0.39 in 0.05 in 0.76 in (1981)
Month to date precipitation 0.15  
Year to date precipitation 12.59  
Sea Level Pressure  
Sea Level Pressure 30.29 in    
Wind  
Wind Speed 9 mph (NNW)    
Max Wind Speed 22 mph    
Max Gust Speed 28 mph    
Visibility 4 miles    
Events Fog , Rain , Snow    
T = Trace of Precipitation, MM = Missing Value Source: NWS Daily Summary

Daily Weather History Graph

Daily Weather History Graph

Search for Another Location

Airport:

Trip Planner

Search our weather history database for the weather conditions in past years. The results will help you decide how hot, cold, wet, or windy it might be!

Date:

Astronomy

Oct. 03, 2012 Rise Set
Actual Time 7:23 AM MDT 6:57 PM MDT
Civil Twilight 6:53 AM MDT 7:26 PM MDT
Nautical Twilight 6:19 AM MDT 8:01 PM MDT
Astronomical Twilight 5:44 AM MDT 8:35 PM MDT
Moon 8:38 PM MDT (10/3) 11:02 AM MDT (10/3)
Length of Visible Light 12h 32m
Length of Day
11h 33m
Waning Gibbous, 88% of the Moon is Illuminated
Oct 3
Waning Gibbous
Oct 8
Last Quarter
Oct 15
New
Oct 21
First Quarter
Oct 29
Full

Hourly Weather History & Observations

Time (MDT) Temp. Windchill Dew Point Humidity Pressure Visibility Wind Dir Wind Speed Gust Speed Precip Events Conditions
12:53 AM 45.0 °F 40.6 °F 33.1 °F 63% 29.81 in 10.0 mi NW 8.1 mph - N/A   Clear
1:53 AM 43.0 °F 37.2 °F 34.0 °F 71% 29.83 in 10.0 mi NW 10.4 mph - N/A   Clear
2:53 AM 44.1 °F 37.7 °F 34.0 °F 68% 29.88 in 10.0 mi NW 12.7 mph - N/A   Mostly Cloudy
3:53 AM 43.0 °F 38.2 °F 34.0 °F 71% 29.89 in 10.0 mi NNW 8.1 mph 19.6 mph N/A   Overcast
4:53 AM 41.0 °F 35.8 °F 30.9 °F 67% 29.92 in 10.0 mi WNW 8.1 mph - N/A   Overcast
5:20 AM 41.0 °F 36.4 °F 30.2 °F 65% 30.01 in 10.0 mi NW 6.9 mph - N/A   Overcast
5:53 AM 36.0 °F 25.0 °F 30.9 °F 82% 29.98 in 4.0 mi NW 20.7 mph 26.5 mph 0.02 in Rain Heavy Rain
6:11 AM 35.6 °F 24.2 °F 30.2 °F 81% 30.06 in 2.0 mi NW 21.9 mph 27.6 mph 0.02 in Snow Light Snow
6:19 AM 33.8 °F 22.2 °F 32.0 °F 93% 30.06 in 1.2 mi NW 20.7 mph - 0.03 in Snow Light Snow
6:21 AM 33.8 °F 22.5 °F 32.0 °F 93% 30.07 in 1.0 mi NW 19.6 mph - 0.03 in Snow Light Snow
6:30 AM 33.8 °F 23.9 °F 30.2 °F 87% 30.08 in 1.0 mi NNW 15.0 mph 26.5 mph 0.04 in Snow Light Snow
6:53 AM 34.0 °F 26.6 °F 30.9 °F 89% 30.06 in 0.8 mi North 9.2 mph 20.7 mph 0.07 in Snow Light Snow
7:14 AM 33.8 °F 27.7 °F 30.2 °F 87% 30.13 in 3.0 mi NNW 6.9 mph - 0.02 in Snow Light Snow
7:21 AM 33.8 °F 30.8 °F 30.2 °F 87% 30.14 in 9.0 mi West 3.5 mph - 0.02 in Snow Light Snow
7:35 AM 33.8 °F 24.3 °F 30.2 °F 87% 30.15 in 1.8 mi NNW 13.8 mph 18.4 mph 0.03 in Snow Light Snow
7:38 AM 33.8 °F 24.3 °F 30.2 °F 87% 30.15 in 1.0 mi NNW 13.8 mph 18.4 mph 0.03 in Snow Light Snow
7:42 AM 33.8 °F 24.8 °F 30.2 °F 87% 30.15 in 0.8 mi NNW 12.7 mph - 0.04 in Snow Light Snow
7:53 AM 33.1 °F 23.9 °F 30.0 °F 89% 30.16 in 0.2 mi NW 12.7 mph - 0.05 in Fog , Snow Heavy Snow
8:01 AM 33.8 °F 25.8 °F 30.2 °F 87% 30.17 in 0.2 mi NW 10.4 mph - 0.01 in Fog , Snow Heavy Snow
8:42 AM 33.8 °F 29.6 °F 30.2 °F 87% 30.20 in 0.5 mi West 4.6 mph - 0.04 in Fog , Snow Snow
8:53 AM 34.0 °F 28.8 °F 30.9 °F 89% 30.20 in 0.5 mi WSW 5.8 mph - 0.05 in Fog , Snow Snow
9:02 AM 33.8 °F 28.6 °F 30.2 °F 87% 30.22 in 1.2 mi WSW 5.8 mph - 0.00 in Snow Light Snow
9:16 AM 33.8 °F 27.0 °F 30.2 °F 87% 30.22 in 2.5 mi WSW 8.1 mph - 0.00 in Snow Light Snow
9:34 AM 35.6 °F 29.2 °F 30.2 °F 81% 30.23 in 1.0 mi WSW 8.1 mph - 0.01 in Snow Light Snow
9:47 AM 33.8 °F 26.4 °F 30.2 °F 87% 30.24 in 1.2 mi SW 9.2 mph - 0.01 in Snow Light Snow
9:53 AM 35.1 °F 26.9 °F 30.9 °F 85% 30.24 in 2.0 mi SW 11.5 mph - 0.01 in Snow Light Snow
9:56 AM 35.6 °F 27.5 °F 30.2 °F 81% 30.24 in 1.8 mi SW 11.5 mph - 0.00 in Snow Light Snow
10:20 AM 35.6 °F 28.0 °F 30.2 °F 81% 30.26 in 3.0 mi West 10.4 mph - 0.00 in Snow Light Snow
10:46 AM 35.6 °F 28.6 °F 30.2 °F 81% 30.29 in 1.5 mi NNW 9.2 mph - 0.00 in Snow Light Snow
10:50 AM 35.6 °F 28.0 °F 30.2 °F 81% 30.29 in 0.8 mi NNW 10.4 mph - 0.00 in Snow Light Snow
10:53 AM 35.1 °F 27.4 °F 30.9 °F 85% 30.29 in 0.8 mi NNW 10.4 mph - 0.01 in Snow Light Snow
11:09 AM 35.6 °F 29.2 °F 30.2 °F 81% 30.30 in 1.2 mi NNW 8.1 mph - 0.00 in Snow Light Snow
11:16 AM 35.6 °F 31.7 °F 32.0 °F 87% 30.30 in 2.0 mi NW 4.6 mph - 0.00 in Snow Light Snow
11:27 AM 35.6 °F 32.8 °F 32.0 °F 87% 30.31 in 3.0 mi West 3.5 mph - 0.00 in Snow Light Snow
11:31 AM 35.6 °F - 32.0 °F 87% 30.31 in 2.5 mi Calm Calm - 0.00 in Snow Light Snow
11:41 AM 35.6 °F - 30.2 °F 81% 30.31 in 1.8 mi Calm Calm - 0.00 in Snow Light Snow
11:48 AM 35.6 °F 31.7 °F 32.0 °F 87% 30.31 in 2.5 mi South 4.6 mph - 0.01 in Snow Light Snow
11:53 AM 35.1 °F 30.1 °F 32.0 °F 89% 30.34 in 5.0 mi South 5.8 mph - 0.01 in Snow Light Snow
12:18 PM 35.6 °F 31.7 °F 32.0 °F 87% 30.32 in 3.0 mi South 4.6 mph - 0.00 in Snow Light Snow
12:31 PM 35.6 °F 29.2 °F 32.0 °F 87% 30.32 in 8.0 mi South 8.1 mph - 0.00 in Snow Light Snow
12:53 PM 36.0 °F 29.0 °F 32.0 °F 86% 30.36 in 10.0 mi South 9.2 mph - 0.00 in   Overcast
1:24 PM 37.4 °F 32.1 °F 32.0 °F 81% 30.32 in 10.0 mi South 6.9 mph - N/A   Overcast
2:21 PM 37.4 °F 32.1 °F 33.8 °F 87% 30.34 in 10.0 mi East 6.9 mph - 0.01 in Rain Light Rain
2:53 PM 37.9 °F 32.1 °F 34.0 °F 86% 30.39 in 10.0 mi SE 8.1 mph - 0.02 in   Mostly Cloudy
3:53 PM 41.0 °F 35.8 °F 34.0 °F 76% 30.40 in 10.0 mi SE 8.1 mph - 0.00 in   Mostly Cloudy
4:53 PM 39.0 °F 34.0 °F 33.1 °F 79% 30.43 in 10.0 mi South 6.9 mph - 0.02 in   Overcast
5:53 PM 37.9 °F 33.5 °F 32.0 °F 79% 30.47 in 10.0 mi West 5.8 mph - N/A   Overcast
6:34 PM 37.4 °F 32.8 °F 32.0 °F 81% 30.41 in 10.0 mi NNW 5.8 mph - 0.00 in   Overcast
6:53 PM 36.0 °F 30.3 °F 33.1 °F 89% 30.50 in 5.0 mi ENE 6.9 mph - 0.00 in   Overcast
7:03 PM 35.6 °F 30.7 °F 32.0 °F 87% 30.42 in 7.0 mi NE 5.8 mph - 0.01 in   Overcast
7:16 PM 35.6 °F 31.7 °F 33.8 °F 93% 30.42 in 8.0 mi NE 4.6 mph - 0.01 in   Overcast
7:40 PM 35.6 °F 32.8 °F 32.0 °F 87% 30.42 in 1.8 mi NNE 3.5 mph - 0.02 in Snow Light Snow
7:53 PM 35.1 °F 29.3 °F 30.9 °F 85% 30.51 in 3.0 mi East 6.9 mph - 0.03 in Snow Light Snow
8:44 PM 35.6 °F 29.2 °F 30.2 °F 81% 30.42 in 2.5 mi North 8.1 mph - 0.01 in Snow Light Snow
8:53 PM 35.1 °F 31.0 °F 30.0 °F 82% 30.50 in 1.2 mi NE 4.6 mph - 0.01 in Snow Light Snow
9:01 PM 33.8 °F 28.6 °F 30.2 °F 87% 30.43 in 0.8 mi East 5.8 mph - 0.01 in Snow Light Snow
9:09 PM 33.8 °F 28.6 °F 30.2 °F 87% 30.43 in 0.8 mi NNE 5.8 mph - 0.02 in Snow Light Snow
9:26 PM 33.8 °F 30.8 °F 32.0 °F 93% 30.43 in 0.5 mi NNW 3.5 mph - 0.06 in Fog , Snow Snow
9:33 PM 33.8 °F 28.6 °F 30.2 °F 87% 30.42 in 1.0 mi NNW 5.8 mph - 0.06 in Snow Light Snow
9:42 PM 33.8 °F 29.6 °F 30.2 °F 87% 30.42 in 2.0 mi North 4.6 mph - 0.06 in Snow Light Snow
9:53 PM 33.1 °F 30.0 °F 30.9 °F 92% 30.51 in 1.2 mi NNW 3.5 mph - 0.07 in Snow Light Snow
9:56 PM 33.8 °F 30.8 °F 30.2 °F 87% 30.42 in 1.0 mi NNW 3.5 mph - 0.00 in Snow Light Snow
10:03 PM 33.8 °F 28.6 °F 30.2 °F 87% 30.42 in 1.5 mi NNW 5.8 mph - 0.00 in Snow Light Snow
10:06 PM 33.8 °F 28.6 °F 30.2 °F 87% 30.42 in 2.0 mi North 5.8 mph - 0.00 in Snow Light Snow
10:08 PM 33.8 °F 28.6 °F 30.2 °F 87% 30.42 in 3.0 mi North 5.8 mph - 0.00 in Snow Light Snow
10:22 PM 33.8 °F 30.8 °F 30.2 °F 87% 30.42 in 4.0 mi NW 3.5 mph - 0.00 in Snow Light Snow
10:34 PM 33.8 °F 29.6 °F 30.2 °F 87% 30.42 in 9.0 mi NNW 4.6 mph - 0.00 in Snow Light Snow
10:43 PM 33.8 °F 30.8 °F 30.2 °F 87% 30.42 in 7.0 mi NNW 3.5 mph - 0.00 in Snow Light Snow
10:53 PM 33.1 °F 30.0 °F 30.9 °F 92% 30.51 in 9.0 mi NNW 3.5 mph - 0.00 in   Overcast
11:00 PM 33.8 °F 30.8 °F 30.2 °F 87% 30.42 in 10.0 mi NNE 3.5 mph - N/A   Overcast
11:10 PM 33.8 °F 29.6 °F 30.2 °F 87% 30.41 in 1.5 mi NNE 4.6 mph - N/A   Overcast
11:13 PM 33.8 °F 29.6 °F 30.2 °F 87% 30.41 in 0.8 mi NNE 4.6 mph - N/A   Overcast
11:37 PM 33.8 °F 26.4 °F 30.2 °F 87% 30.41 in 1.0 mi ENE 9.2 mph - 0.02 in Snow Light Snow
11:42 PM 33.8 °F 26.4 °F 30.2 °F 87% 30.41 in 1.5 mi East 9.2 mph - 0.02 in Snow Light Snow
11:53 PM 34.0 °F 26.6 °F 30.9 °F 89% 30.49 in 1.5 mi East 9.2 mph - 0.02 in Snow Light Snow